Find Starlink 5633

NORAD ID: 55410 Int'l Des: 2023-014 Owner: SPXS Country: US Constellation: starlink operational
LEOCIRCULAR

Current View

Loading 3D Globe...

About Starlink 5633

Starlink 5633 (NORAD 55410) is a starlink constellation satellite (v1.5) launched Jan 31, 2023 by SPXS of US. It operates in LEO, CIRCULAR orbit with a mass of 305.00 kg.

About Starlink 5633

Description loading...

Upcoming Passes

Passes for default location (London). Set your location on the main map for personalized predictions.

Altitude History

Loading altitude history...

Two-Line Element Set

1 55410U 23014V 26166.47523142 -.00000071 00000-0 18883-5 0 9996
2 55410 69.9987 197.7343 0003847 268.2875 91.7844 14.98327657186212
Epoch: Jun 15, 2026 • Age: 10 hours

Current Status

Altitude 583.9 km
Velocity 7.57 km/s
Sub-Earth Point 59.18°N, 112.24°E
Launch Date Jan 31, 2023
Age 3.3 years
Type internet

Technical Details

Classification Payload
Mass 305.00 kg
Dry Mass 290.00 kg
Total Mass 305.00 kg
Length 0.20 m
Diameter 2.80 m
Span 9.00 m
Shape Box + pan
Manufacturer SPXS
Bus Type Starlink
Phase Status In Orbit
Owner/State SPXS/US

Most Searched